Location: Dortmund
(51.5019°N, 7.6520°E)
Time: 10:44:29
(UTC+01:00)

ISS - Pass Details

Date: 10 January 2018
Orbit: 402 x 406 km, 51.6° (Epoch: 16 January)

Event Time Altitude Azimuth Distance (km) Brightness Sun altitude
Exits shadow 04:59:59 10° 89° (E) 1,462 -0.2 -32.0°
Drops below altitude 10° 05:00:00 10° 89° (E) 1,472 -0.1 -32.0°
Sets 05:02:04 0° 90° (E) 2,327 1.2 -31.6°
